HAZ1151 ZUUU-ZLLL

Flight info

Callsign HAZ1151
Flight time 1h 8m
Altitude 32100
Route BOKIR9W BOKIR W179 OMBON W195 ORUNA ORUNA9K
Aircraft A321/M-SDE3FGHIRWY/LB1

Departure

Time 2026-04-23 11:26
Airport Chengdu Shuangliu International Airport (ZUUU)

Arrival

Time 2026-04-23 12:35
Airport Lanzhou Zhongchuan International Airport (ZLLL)
Time Latitude Longitude Altitude Speed Heading
2026-04-23 11:01 30.56234 103.94977 1690 ft 0 kts 202°
2026-04-23 11:16 30.56243 103.94981 1689 ft 2 kts 202°
2026-04-23 11:16 30.56258 103.94988 1689 ft 2 kts 202°
2026-04-23 11:17 30.56269 103.94994 1689 ft 0 kts 202°
2026-04-23 11:17 30.56281 103.94998 1689 ft 2 kts 185°
2026-04-23 11:17 30.56293 103.94997 1689 ft 2 kts 168°
2026-04-23 11:17 30.56307 103.94992 1689 ft 2 kts 149°
2026-04-23 11:18 30.56318 103.94981 1689 ft 2 kts 129°
2026-04-23 11:18 30.56325 103.94970 1689 ft 0 kts 114°
2026-04-23 11:18 30.56327 103.94963 1689 ft 0 kts 111°
2026-04-23 11:18 30.56327 103.94962 1689 ft 0 kts 111°
2026-04-23 11:20 30.56327 103.94964 1689 ft 0 kts 111°
2026-04-23 11:20 30.56321 103.94979 1689 ft 3 kts 111°
2026-04-23 11:20 30.56308 103.95017 1689 ft 6 kts 112°
2026-04-23 11:21 30.56283 103.95087 1689 ft 12 kts 111°
2026-04-23 11:21 30.56249 103.95187 1689 ft 13 kts 112°
2026-04-23 11:21 30.56204 103.95279 1689 ft 13 kts 152°
2026-04-23 11:21 30.56114 103.95264 1689 ft 13 kts 198°
2026-04-23 11:22 30.56024 103.95225 1689 ft 14 kts 201°
2026-04-23 11:22 30.55932 103.95183 1689 ft 14 kts 202°
2026-04-23 11:22 30.55839 103.95139 1689 ft 14 kts 202°
2026-04-23 11:22 30.55744 103.95095 1689 ft 14 kts 201°
2026-04-23 11:23 30.55645 103.95049 1689 ft 15 kts 202°
2026-04-23 11:23 30.55540 103.95001 1689 ft 16 kts 201°
2026-04-23 11:23 30.55426 103.94947 1689 ft 18 kts 202°
2026-04-23 11:23 30.55307 103.94890 1689 ft 19 kts 203°
2026-04-23 11:24 30.55182 103.94832 1689 ft 19 kts 200°
2026-04-23 11:24 30.55067 103.94796 1689 ft 14 kts 164°
2026-04-23 11:24 30.55012 103.94890 1689 ft 14 kts 112°
2026-04-23 11:24 30.54975 103.94999 1689 ft 14 kts 119°
2026-04-23 11:25 30.54887 103.95033 1689 ft 14 kts 199°
2026-04-23 11:25 30.54864 103.95023 1689 ft 0 kts 201°
2026-04-23 11:25 30.54789 103.94989 1689 ft 41 kts 202°
2026-04-23 11:25 30.54294 103.94759 1689 ft 110 kts 202°
2026-04-23 11:26 30.53376 103.94332 1688 ft 169 kts 202°
2026-04-23 11:26 30.52210 103.93785 1990 ft 190 kts 201°
2026-04-23 11:26 30.50923 103.93304 2466 ft 200 kts 189°
2026-04-23 11:26 30.49527 103.93174 3164 ft 200 kts 180°
2026-04-23 11:27 30.48189 103.93087 3867 ft 192 kts 185°
2026-04-23 11:27 30.46829 103.92904 4132 ft 204 kts 186°
2026-04-23 11:27 30.45375 103.92691 4389 ft 217 kts 186°
2026-04-23 11:27 30.43826 103.92463 4653 ft 230 kts 186°
2026-04-23 11:28 30.42164 103.92222 4846 ft 249 kts 186°
2026-04-23 11:28 30.40380 103.91966 5156 ft 265 kts 187°
2026-04-23 11:28 30.38504 103.91698 5506 ft 279 kts 187°
2026-04-23 11:28 30.36565 103.91419 6025 ft 284 kts 186°
2026-04-23 11:29 30.34579 103.91137 6612 ft 286 kts 186°
2026-04-23 11:29 30.32619 103.91122 7115 ft 287 kts 166°
2026-04-23 11:29 30.30850 103.92142 7614 ft 288 kts 138°
2026-04-23 11:29 30.29667 103.93974 8148 ft 287 kts 113°
2026-04-23 11:30 30.28943 103.96125 8676 ft 289 kts 110°
2026-04-23 11:30 30.28224 103.98309 9176 ft 292 kts 111°
2026-04-23 11:30 30.27480 104.00510 9683 ft 293 kts 111°
2026-04-23 11:30 30.26885 104.02738 10132 ft 298 kts 97°
2026-04-23 11:31 30.27033 104.05177 10390 ft 311 kts 74°
2026-04-23 11:31 30.28032 104.07440 10641 ft 325 kts 51°
2026-04-23 11:31 30.29775 104.09130 10882 ft 337 kts 28°
2026-04-23 11:31 30.31940 104.10258 11065 ft 349 kts 23°
2026-04-23 11:32 30.34234 104.11403 11238 ft 361 kts 24°
2026-04-23 11:32 30.36583 104.12596 11403 ft 373 kts 24°
2026-04-23 11:32 30.38966 104.13822 11575 ft 383 kts 24°
2026-04-23 11:32 30.41409 104.15093 11923 ft 388 kts 24°
2026-04-23 11:33 30.43887 104.16386 12349 ft 391 kts 24°
2026-04-23 11:33 30.46369 104.17681 12746 ft 393 kts 24°
2026-04-23 11:33 30.48897 104.18993 13110 ft 396 kts 24°
2026-04-23 11:33 30.51394 104.20290 13479 ft 399 kts 24°
2026-04-23 11:34 30.53965 104.21628 13878 ft 402 kts 24°
2026-04-23 11:34 30.56509 104.22953 14272 ft 405 kts 24°
2026-04-23 11:34 30.59100 104.24303 14666 ft 408 kts 24°
2026-04-23 11:34 30.61696 104.25658 15055 ft 411 kts 24°
2026-04-23 11:35 30.64318 104.27026 15441 ft 414 kts 24°
2026-04-23 11:35 30.66915 104.28382 15808 ft 416 kts 24°
2026-04-23 11:35 30.69565 104.29768 16178 ft 418 kts 24°
2026-04-23 11:35 30.72236 104.31166 16561 ft 420 kts 24°
2026-04-23 11:36 30.74922 104.32573 16945 ft 423 kts 24°
2026-04-23 11:36 30.77593 104.33972 17307 ft 425 kts 24°
2026-04-23 11:36 30.80286 104.35383 17666 ft 427 kts 24°
2026-04-23 11:36 30.83015 104.36811 18024 ft 429 kts 24°
2026-04-23 11:37 30.85800 104.38067 18360 ft 432 kts 16°
2026-04-23 11:37 30.88752 104.38792 18722 ft 433 kts
2026-04-23 11:37 30.91769 104.38967 19082 ft 434 kts 358°
2026-04-23 11:37 30.94763 104.38899 19438 ft 435 kts 357°
2026-04-23 11:38 30.97809 104.38786 19800 ft 437 kts 356°
2026-04-23 11:38 31.00871 104.38673 20167 ft 438 kts 356°
2026-04-23 11:38 31.03914 104.38572 20524 ft 439 kts 357°
2026-04-23 11:38 31.06987 104.38480 20882 ft 440 kts 357°
2026-04-23 11:39 31.10030 104.38396 21228 ft 442 kts 357°
2026-04-23 11:39 31.13096 104.38314 21564 ft 442 kts 357°
2026-04-23 11:39 31.16184 104.38231 21891 ft 444 kts 357°
2026-04-23 11:39 31.19294 104.38147 22212 ft 446 kts 357°
2026-04-23 11:40 31.22402 104.38063 22513 ft 448 kts 357°
2026-04-23 11:40 31.25545 104.37976 22828 ft 450 kts 356°
2026-04-23 11:40 31.28677 104.37820 23142 ft 451 kts 355°
2026-04-23 11:40 31.31809 104.37630 23440 ft 452 kts 355°
2026-04-23 11:41 31.34927 104.37434 23732 ft 453 kts 355°
2026-04-23 11:41 31.38112 104.37238 24030 ft 454 kts 355°
2026-04-23 11:41 31.41237 104.37049 24319 ft 455 kts 355°
2026-04-23 11:41 31.44447 104.36859 24622 ft 457 kts 355°
2026-04-23 11:42 31.47593 104.36675 24914 ft 459 kts 355°
2026-04-23 11:42 31.50801 104.36488 25207 ft 460 kts 355°
2026-04-23 11:42 31.54026 104.36300 25503 ft 462 kts 355°
2026-04-23 11:42 31.57222 104.36114 25791 ft 463 kts 355°
2026-04-23 11:43 31.60457 104.35925 26071 ft 465 kts 355°
2026-04-23 11:43 31.63675 104.35737 26352 ft 466 kts 355°
2026-04-23 11:43 31.66910 104.35548 26626 ft 468 kts 355°
2026-04-23 11:43 31.70185 104.35357 26959 ft 468 kts 355°
2026-04-23 11:44 31.73418 104.35169 27317 ft 467 kts 354°
2026-04-23 11:44 31.76674 104.34978 27658 ft 467 kts 354°
2026-04-23 11:44 31.79907 104.34800 27980 ft 467 kts 354°
2026-04-23 11:44 31.83189 104.34631 28336 ft 467 kts 354°
2026-04-23 11:45 31.86430 104.34467 28686 ft 466 kts 354°
2026-04-23 11:45 31.89641 104.34303 29036 ft 466 kts 354°
2026-04-23 11:45 31.92906 104.34138 29420 ft 465 kts 354°
2026-04-23 11:45 31.96106 104.33974 29804 ft 464 kts 354°
2026-04-23 11:46 31.99357 104.33807 30181 ft 463 kts 354°
2026-04-23 11:46 32.02564 104.33643 30579 ft 462 kts 354°
2026-04-23 11:46 32.05765 104.33478 30903 ft 462 kts 354°
2026-04-23 11:46 32.08996 104.33312 31141 ft 464 kts 354°
2026-04-23 11:47 32.12221 104.33145 31276 ft 467 kts 354°
2026-04-23 11:47 32.18732 104.32811 31062 ft 465 kts 353°
2026-04-23 11:47 32.21977 104.32644 30887 ft 465 kts 353°
2026-04-23 11:48 32.25222 104.32474 30784 ft 468 kts 354°
2026-04-23 11:48 32.31746 104.32137 30718 ft 471 kts 354°
2026-04-23 11:49 32.38308 104.31800 30737 ft 472 kts 354°
2026-04-23 11:49 32.44866 104.31469 30852 ft 474 kts 354°
2026-04-23 11:49 32.48141 104.31313 31011 ft 473 kts 354°
2026-04-23 11:50 32.51468 104.31155 31160 ft 473 kts 354°
2026-04-23 11:50 32.58024 104.30843 30994 ft 471 kts 354°
2026-04-23 11:50 32.61292 104.30685 30889 ft 471 kts 354°
2026-04-23 11:51 32.64558 104.30527 30809 ft 471 kts 354°
2026-04-23 11:51 32.71145 104.30209 30685 ft 472 kts 354°
2026-04-23 11:52 32.77705 104.29894 30574 ft 472 kts 354°
2026-04-23 11:52 32.84237 104.29581 30588 ft 471 kts 354°
2026-04-23 11:53 32.90802 104.29262 30661 ft 470 kts 354°
2026-04-23 11:53 32.97353 104.28942 30717 ft 469 kts 354°
2026-04-23 11:54 33.03854 104.28627 30779 ft 467 kts 354°
2026-04-23 11:54 33.10323 104.28313 30835 ft 466 kts 353°
2026-04-23 11:55 33.16804 104.27999 30945 ft 463 kts 353°
2026-04-23 11:55 33.19996 104.27844 31082 ft 462 kts 353°
2026-04-23 11:55 33.23202 104.27689 31239 ft 460 kts 353°
2026-04-23 11:55 33.26397 104.27522 31405 ft 458 kts 352°
2026-04-23 11:56 33.29544 104.27154 31441 ft 454 kts 348°
2026-04-23 11:56 33.35696 104.25584 31234 ft 448 kts 339°
2026-04-23 11:56 33.38620 104.24413 31051 ft 444 kts 335°
2026-04-23 11:57 33.41473 104.22981 30924 ft 442 kts 331°
2026-04-23 11:57 33.46878 104.19523 30776 ft 441 kts 327°
2026-04-23 11:58 33.52206 104.15974 30690 ft 443 kts 330°
2026-04-23 11:58 33.57975 104.13224 30706 ft 449 kts 339°
2026-04-23 11:59 33.64129 104.11596 30762 ft 454 kts 348°
2026-04-23 11:59 33.70441 104.11148 30777 ft 458 kts 355°
2026-04-23 11:59 33.73616 104.11137 30893 ft 458 kts 356°
2026-04-23 12:00 33.76807 104.11140 31185 ft 456 kts 356°
2026-04-23 12:00 33.79969 104.11149 31539 ft 452 kts 356°
2026-04-23 12:00 33.83084 104.11156 31908 ft 448 kts 355°
2026-04-23 12:00 33.86209 104.11163 32232 ft 449 kts 355°
2026-04-23 12:01 33.89328 104.11166 32382 ft 453 kts 355°
2026-04-23 12:01 33.95643 104.11176 32467 ft 454 kts 355°
2026-04-23 12:02 34.01932 104.11188 32407 ft 450 kts 355°
2026-04-23 12:02 34.08186 104.11197 32384 ft 448 kts 355°
2026-04-23 12:03 34.14409 104.11189 32321 ft 447 kts 355°
2026-04-23 12:03 34.20664 104.11192 32315 ft 448 kts 355°
2026-04-23 12:04 34.26909 104.11197 32343 ft 448 kts 355°
2026-04-23 12:04 34.33124 104.11193 32363 ft 449 kts 355°
2026-04-23 12:05 34.39407 104.11195 32385 ft 452 kts 355°
2026-04-23 12:05 34.45677 104.11199 32402 ft 452 kts 355°
2026-04-23 12:06 34.51967 104.11194 32418 ft 451 kts 355°
2026-04-23 12:06 34.61350 104.11197 32462 ft 447 kts 355°
2026-04-23 12:07 34.67523 104.11196 32499 ft 442 kts 355°
2026-04-23 12:07 34.73693 104.11200 32536 ft 444 kts 355°
2026-04-23 12:08 34.79873 104.11195 32549 ft 446 kts 355°
2026-04-23 12:08 34.86101 104.11197 32533 ft 447 kts 354°
2026-04-23 12:09 34.92308 104.11198 32502 ft 447 kts 354°
2026-04-23 12:09 34.98523 104.11193 32463 ft 447 kts 354°
2026-04-23 12:10 35.04760 104.11189 32433 ft 446 kts 354°
2026-04-23 12:10 35.10931 104.11183 32494 ft 444 kts 354°
2026-04-23 12:11 35.17061 104.11177 32517 ft 437 kts 355°
2026-04-23 12:11 35.23103 104.11174 32403 ft 433 kts 355°
2026-04-23 12:12 35.29137 104.11173 32169 ft 435 kts 355°
2026-04-23 12:12 35.32163 104.11173 31950 ft 434 kts 355°
2026-04-23 12:12 35.35164 104.11174 31715 ft 432 kts 355°
2026-04-23 12:13 35.38191 104.11176 31477 ft 430 kts 355°
2026-04-23 12:13 35.41150 104.11179 31243 ft 428 kts 355°
2026-04-23 12:13 35.44141 104.11181 31000 ft 427 kts 355°
2026-04-23 12:13 35.47127 104.11182 30731 ft 427 kts 355°
2026-04-23 12:14 35.50109 104.11182 30463 ft 429 kts 355°
2026-04-23 12:14 35.53085 104.11189 30197 ft 430 kts 356°
2026-04-23 12:14 35.56067 104.11200 29932 ft 431 kts 356°
2026-04-23 12:14 35.59065 104.11212 29675 ft 433 kts 356°
2026-04-23 12:15 35.62077 104.11226 29417 ft 434 kts 356°
2026-04-23 12:15 35.65125 104.11240 29157 ft 435 kts 356°
2026-04-23 12:15 35.68137 104.11255 28899 ft 436 kts 356°
2026-04-23 12:15 35.71192 104.11269 28627 ft 438 kts 356°
2026-04-23 12:16 35.74243 104.11285 28356 ft 439 kts 356°
2026-04-23 12:16 35.77287 104.11298 28087 ft 439 kts 356°
2026-04-23 12:16 35.80294 104.10953 27793 ft 434 kts 343°
2026-04-23 12:16 35.83084 104.09592 27319 ft 430 kts 328°
2026-04-23 12:17 35.85431 104.07337 26639 ft 426 kts 312°
2026-04-23 12:17 35.87266 104.04547 26123 ft 418 kts 306°
2026-04-23 12:17 35.89020 104.01739 25592 ft 413 kts 306°
2026-04-23 12:17 35.90776 103.98939 24939 ft 407 kts 306°
2026-04-23 12:18 35.92496 103.96214 24353 ft 405 kts 306°
2026-04-23 12:18 35.94229 103.93473 23784 ft 405 kts 306°
2026-04-23 12:18 35.95943 103.90765 23241 ft 402 kts 306°
2026-04-23 12:18 35.97606 103.87987 22709 ft 398 kts 301°
2026-04-23 12:19 35.98926 103.85031 22180 ft 394 kts 294°
2026-04-23 12:19 35.99900 103.81902 21645 ft 390 kts 287°
2026-04-23 12:19 36.00575 103.78688 21117 ft 386 kts 283°
2026-04-23 12:19 36.01176 103.75494 20598 ft 382 kts 283°
2026-04-23 12:20 36.01762 103.72327 20070 ft 377 kts 283°
2026-04-23 12:20 36.02340 103.69203 19550 ft 373 kts 283°
2026-04-23 12:20 36.02920 103.66074 19027 ft 369 kts 282°
2026-04-23 12:20 36.03486 103.63014 18514 ft 365 kts 282°
2026-04-23 12:21 36.04030 103.60052 18003 ft 348 kts 283°
2026-04-23 12:21 36.04559 103.57201 17525 ft 328 kts 283°
2026-04-23 12:21 36.05052 103.54549 17069 ft 311 kts 283°
2026-04-23 12:21 36.05532 103.51976 16639 ft 301 kts 282°
2026-04-23 12:22 36.05992 103.49485 16233 ft 297 kts 282°
2026-04-23 12:22 36.06444 103.47037 15805 ft 290 kts 283°
2026-04-23 12:22 36.06889 103.44623 15378 ft 286 kts 282°
2026-04-23 12:22 36.07328 103.42232 14972 ft 283 kts 283°
2026-04-23 12:23 36.07762 103.39866 14582 ft 279 kts 283°
2026-04-23 12:23 36.08189 103.37550 14208 ft 277 kts 284°
2026-04-23 12:23 36.08852 103.35306 13809 ft 276 kts 300°
2026-04-23 12:23 36.09991 103.33427 13436 ft 275 kts 315°
2026-04-23 12:24 36.11491 103.32030 13257 ft 268 kts 330°
2026-04-23 12:24 36.13233 103.31181 13085 ft 270 kts 346°
2026-04-23 12:24 36.15108 103.30890 12920 ft 271 kts 355°
2026-04-23 12:24 36.17007 103.30831 12739 ft 271 kts
2026-04-23 12:25 36.18803 103.31443 12553 ft 272 kts 26°
2026-04-23 12:25 36.20317 103.32823 12378 ft 273 kts 47°
2026-04-23 12:25 36.21343 103.34788 12205 ft 270 kts 68°
2026-04-23 12:25 36.21745 103.37032 12047 ft 260 kts 85°
2026-04-23 12:26 36.21828 103.39223 11932 ft 255 kts 87°
2026-04-23 12:26 36.21886 103.41431 11814 ft 255 kts 87°
2026-04-23 12:26 36.21955 103.43632 11695 ft 254 kts 86°
2026-04-23 12:26 36.22035 103.45821 11577 ft 253 kts 86°
2026-04-23 12:27 36.22121 103.47979 11451 ft 253 kts 86°
2026-04-23 12:27 36.22211 103.50146 11139 ft 253 kts 86°
2026-04-23 12:27 36.22302 103.52338 10812 ft 251 kts 86°
2026-04-23 12:27 36.22392 103.54487 10489 ft 250 kts 86°
2026-04-23 12:28 36.22482 103.56619 10166 ft 247 kts 86°
2026-04-23 12:28 36.22570 103.58745 9849 ft 245 kts 86°
2026-04-23 12:28 36.22658 103.60834 9549 ft 242 kts 86°
2026-04-23 12:28 36.22768 103.62902 9240 ft 241 kts 79°
2026-04-23 12:29 36.23430 103.64771 8882 ft 238 kts 46°
2026-04-23 12:29 36.24799 103.65875 8782 ft 236 kts 17°
2026-04-23 12:29 36.26412 103.66192 8792 ft 238 kts
2026-04-23 12:29 36.28079 103.66142 8769 ft 238 kts 357°
2026-04-23 12:30 36.29736 103.66002 8759 ft 238 kts 357°
2026-04-23 12:30 36.31353 103.65866 8830 ft 223 kts 358°
2026-04-23 12:30 36.32818 103.65757 8782 ft 198 kts 358°
2026-04-23 12:30 36.34107 103.65670 8756 ft 176 kts 359°
2026-04-23 12:31 36.35307 103.65595 8750 ft 169 kts 359°
2026-04-23 12:31 36.36470 103.65526 8763 ft 168 kts 359°
2026-04-23 12:31 36.37651 103.65453 8717 ft 169 kts 359°
2026-04-23 12:31 36.38817 103.65382 8530 ft 168 kts 359°
2026-04-23 12:32 36.39993 103.65308 8314 ft 167 kts 359°
2026-04-23 12:32 36.41148 103.65235 8102 ft 166 kts 359°
2026-04-23 12:32 36.42300 103.65162 7892 ft 165 kts 359°
2026-04-23 12:32 36.43463 103.65089 7689 ft 167 kts 359°
2026-04-23 12:33 36.44633 103.65017 7475 ft 167 kts 358°
2026-04-23 12:33 36.45790 103.64941 7257 ft 166 kts 358°
2026-04-23 12:33 36.46946 103.64870 7029 ft 167 kts 358°
2026-04-23 12:33 36.48109 103.64796 6829 ft 166 kts 357°
2026-04-23 12:34 36.49272 103.64713 6610 ft 166 kts 358°
2026-04-23 12:34 36.50422 103.64643 6440 ft 164 kts 358°
2026-04-23 12:34 36.51508 103.64574 6403 ft 142 kts 357°
2026-04-23 12:34 36.52327 103.64521 6404 ft 91 kts 359°
2026-04-23 12:35 36.52686 103.64493 6405 ft 22 kts 351°
2026-04-23 12:35 36.52799 103.64453 6405 ft 13 kts 339°
2026-04-23 12:35 36.52883 103.64401 6405 ft 13 kts 330°
2026-04-23 12:35 36.52935 103.64320 6405 ft 12 kts 257°
2026-04-23 12:36 36.52858 103.64286 6405 ft 12 kts 178°
2026-04-23 12:36 36.52769 103.64293 6405 ft 13 kts 178°
2026-04-23 12:36 36.52713 103.64223 6405 ft 12 kts 264°
2026-04-23 12:36 36.52708 103.64112 6405 ft 13 kts 268°
2026-04-23 12:37 36.52685 103.64005 6405 ft 13 kts 223°
2026-04-23 12:37 36.52623 103.63962 6405 ft 6 kts 217°
2026-04-23 12:37 36.52615 103.63909 6405 ft 7 kts 304°
2026-04-23 12:37 36.52634 103.63866 6405 ft 3 kts 295°
2026-04-23 12:38 36.52635 103.63866 6405 ft 0 kts 295°